Weather History for Klamath Falls, OR

Change the Weather History Date:

Saturday, June 2, 2012

  Actual Average Record
Temperature  
Mean Temperature 61 °F 54 °F  
Max Temperature 74 °F 70 °F 91 °F (1996)
Min Temperature 47 °F 39 °F 31 °F (1999)
Degree Days  
Heating Degree Days 4 11  
Month to date heating degree days 4 22  
Since 1 June heating degree days 4 22  
Since 1 July heating degree days 6559 6778  
Cooling Degree Days 0 0  
Month to date cooling degree days 0 0  
Year to date cooling degree days 1 1  
Since 1 June cooling degree days 0 0  
Growing Degree Days 10 (Base 50)    
Moisture  
Dew Point 46 °F    
Average Humidity 63    
Maximum Humidity 93    
Minimum Humidity 33    
Precipitation  
Precipitation 0.00 in 0.01 in 0.37 in (1944)
Month to date precipitation 0.00 0.03  
Year to date precipitation 4.94 7.82  
Sea Level Pressure  
Sea Level Pressure 29.83 in    
Wind  
Wind Speed 9 mph (West)    
Max Wind Speed 21 mph    
Max Gust Speed 28 mph    
Visibility 10 miles    
Events      
T = Trace of Precipitation, MM = Missing Value Source: NWS Daily Summary

Daily Weather History Graph

Daily Weather History Graph

Search for Another Location

Airport:

Trip Planner

Search our weather history database for the weather conditions in past years. The results will help you decide how hot, cold, wet, or windy it might be!

Date:

Astronomy

Jun. 02, 2012 Rise Set
Actual Time 5:32 AM PDT 8:37 PM PDT
Civil Twilight 4:58 AM PDT 9:11 PM PDT
Nautical Twilight 4:15 AM PDT 9:55 PM PDT
Astronomical Twilight 3:24 AM PDT 10:46 PM PDT
Moon 6:58 PM PDT (6/2) 3:56 AM PDT (6/2)
Length of Visible Light 16h 12m
Length of Day
15h 05m
Waxing Gibbous, 96% of the Moon is Illuminated
Jun 2
Waxing Gibbous
Jun 4
Full
Jun 11
Last Quarter
Jun 19
New
Jun 26
First Quarter

Hourly Weather History & Observations

Time (PDT) Temp. Dew Point Humidity Pressure Visibility Wind Dir Wind Speed Gust Speed Precip Events Conditions
12:53 AM 55.0 °F 46.9 °F 74% 29.83 in 10.0 mi West 5.8 mph - N/A   Clear
1:53 AM 55.0 °F 48.9 °F 80% 29.82 in 10.0 mi West 5.8 mph - N/A   Clear
2:53 AM 55.0 °F 50.0 °F 83% 29.82 in 10.0 mi SW 3.5 mph - N/A   Clear
3:53 AM 54.0 °F 50.0 °F 86% 29.81 in 10.0 mi SSW 3.5 mph - N/A   Clear
4:53 AM 52.0 °F 48.9 °F 89% 29.81 in 10.0 mi SW 4.6 mph - N/A   Partly Cloudy
5:53 AM 48.9 °F 46.9 °F 93% 29.81 in 10.0 mi ESE 3.5 mph - N/A   Partly Cloudy
6:01 AM 48.2 °F 48.2 °F 100% 29.92 in 10.0 mi Calm Calm - N/A   Mostly Cloudy
6:53 AM 57.9 °F 52.0 °F 81% 29.82 in 10.0 mi WSW 6.9 mph - N/A   Mostly Cloudy
7:53 AM 60.1 °F 51.1 °F 72% 29.83 in 10.0 mi West 9.2 mph - N/A   Mostly Cloudy
8:53 AM 60.1 °F 51.1 °F 72% 29.85 in 10.0 mi West 9.2 mph - N/A   Mostly Cloudy
9:53 AM 63.0 °F 50.0 °F 63% 29.86 in 10.0 mi West 8.1 mph - N/A   Mostly Cloudy
10:53 AM 64.9 °F 48.9 °F 56% 29.85 in 10.0 mi West 10.4 mph - N/A   Mostly Cloudy
11:53 AM 66.9 °F 46.9 °F 49% 29.85 in 10.0 mi WNW 12.7 mph 19.6 mph N/A   Mostly Cloudy
12:53 PM 70.0 °F 45.0 °F 41% 29.83 in 10.0 mi WNW 13.8 mph 19.6 mph N/A   Scattered Clouds
1:53 PM 72.0 °F 44.1 °F 37% 29.81 in 10.0 mi West 13.8 mph - N/A   Scattered Clouds
2:53 PM 72.0 °F 43.0 °F 35% 29.80 in 10.0 mi WNW 12.7 mph 23.0 mph N/A   Mostly Cloudy
3:53 PM 73.0 °F 42.1 °F 33% 29.79 in 10.0 mi West 17.3 mph - N/A   Mostly Cloudy
4:53 PM 73.0 °F 43.0 °F 34% 29.78 in 10.0 mi WNW 17.3 mph 24.2 mph N/A   Mostly Cloudy
5:53 PM 70.0 °F 43.0 °F 38% 29.79 in 10.0 mi WNW 16.1 mph 24.2 mph N/A   Mostly Cloudy
6:53 PM 69.1 °F 42.1 °F 38% 29.78 in 10.0 mi NW 16.1 mph - N/A   Mostly Cloudy
7:53 PM 64.0 °F 43.0 °F 46% 29.80 in 10.0 mi WNW 8.1 mph - N/A   Mostly Cloudy
8:53 PM 59.0 °F 43.0 °F 55% 29.83 in 10.0 mi West 10.4 mph - N/A   Clear
9:53 PM 55.9 °F 42.1 °F 60% 29.85 in 10.0 mi West 5.8 mph - N/A   Scattered Clouds
10:53 PM 52.0 °F 44.1 °F 74% 29.86 in 10.0 mi WSW 8.1 mph - N/A   Clear
11:53 PM 52.0 °F 45.0 °F 77% 29.85 in 10.0 mi Calm Calm - N/A   Clear